Location: Étouvelles
(49.5207°N, 3.5808°E)
Time: 01:02:36
(UTC+00:00)

Cosmos 540 Rocket - Pass Details

Date: 25 September 2023
Orbit: 737 x 752 km, 74.1° (Epoch: 03 December)

Event Time Altitude Azimuth Distance (km) Brightness Sun altitude
Rises 22:50:10 0° 329° (NNW) 3,183 7.5 -40.5°
Reaches altitude 10° 22:52:43 10° 320° (NW) 2,257 6.5 -40.6°
Enters shadow 22:53:21 13° 316° (NW) 2,048 6.2 -40.6°
